| time (UTC) | temp C | wind direction | speed KPH | gust KPH | rain 1hr cm | rain 24hr cm | rain mn cm | humidity % | barometer mb |
| 20260508140310 | 11 | 264 | 0.0 | 0.0 | 0.00 | 0.00 | 0.00 | 67 | 1017.9 |
| 20260508135305 | 11 | 343 | 0.0 | 4.8 | 0.00 | 0.00 | 0.00 | 70 | 1017.7 |
| 20260508134246 | 11 | 27 | 0.0 | 3.2 | 0.00 | 0.00 | 0.00 | 71 | 1017.6 |
| 20260508133255 | 11 | 31 | 0.0 | 0.0 | 0.00 | 0.00 | 0.00 | 72 | 1017.6 |
| 20260508132221 | 11 | 77 | 0.0 | 0.0 | 0.00 | 0.00 | 0.00 | 70 | 1017.6 |
| 20260508130116 | 10 | 37 | 0.0 | 3.2 | 0.00 | 0.00 | 0.00 | 75 | 1017.4 |
| 20260508125130 | 8 | 58 | 0.0 | 0.0 | 0.00 | 0.00 | 0.00 | 76 | 1017.3 |
| 20260508123014 | 7 | 39 | 0.0 | 4.8 | 0.00 | 0.00 | 0.00 | 77 | 1017.3 |
| 20260508120827 | 7 | 205 | 0.0 | 1.6 | 0.00 | 0.00 | 0.00 | 77 | 1017.1 |
| 20260508114652 | 7 | 165 | 0.0 | 0.0 | 0.00 | 0.00 | 0.00 | 75 | 1017.0 |
| 20260508113647 | 7 | 162 | 0.0 | 0.0 | 0.00 | 0.00 | 0.00 | 75 | 1016.9 |
| 20260508112650 | 7 | 281 | 0.0 | 3.2 | 0.00 | 0.00 | 0.00 | 70 | 1016.9 |
| 20260508111658 | 7 | 179 | 0.0 | 3.2 | 0.00 | 0.00 | 0.00 | 70 | 1016.9 |
| 20260508105623 | 6 | 122 | 0.0 | 0.0 | 0.00 | 0.00 | 0.00 | 75 | 1016.7 |
| 20260508104619 | 6 | 154 | 0.0 | 0.0 | 0.00 | 0.00 | 0.00 | 75 | 1016.7 |
| 20260508103627 | 6 | 200 | 0.0 | 0.0 | 0.00 | 0.00 | 0.00 | 77 | 1016.7 |
| 20260508102556 | 6 | 139 | 0.0 | 0.0 | 0.00 | 0.00 | 0.00 | 76 | 1016.8 |
| 20260508101547 | 6 | 6 | 0.0 | 0.0 | 0.00 | 0.00 | 0.00 | 77 | 1016.7 |
| 20260508100553 | 5 | 162 | 0.0 | 0.0 | 0.00 | 0.00 | 0.00 | 78 | 1016.8 |
| 20260508095531 | 5 | 184 | 0.0 | 1.6 | 0.00 | 0.00 | 0.00 | 79 | 1016.9 |
| 20260508093405 | 5 | 170 | 0.0 | 0.0 | 0.00 | 0.00 | 0.00 | 79 | 1016.7 |
| 20260508092342 | 5 | 165 | 0.0 | 0.0 | 0.00 | 0.00 | 0.00 | 79 | 1016.6 |
| 20260508091332 | 5 | 226 | 0.0 | 1.6 | 0.00 | 0.00 | 0.00 | 77 | 1016.7 |
| 20260508090319 | 5 | 250 | 0.0 | 0.0 | 0.00 | 0.00 | 0.00 | 78 | 1016.7 |
| 20260508084220 | 6 | 135 | 0.0 | 0.0 | 0.00 | 0.00 | 0.00 | 74 | 1016.6 |
| 20260508083222 | 6 | 136 | 0.0 | 0.0 | 0.00 | 0.00 | 0.00 | 73 | 1016.7 |
| 20260508082226 | 7 | 170 | 0.0 | 0.0 | 0.00 | 0.00 | 0.00 | 71 | 1016.6 |
| 20260508081250 | 7 | 214 | 0.0 | 1.6 | 0.00 | 0.00 | 0.00 | 68 | 1016.6 |
| 20260508080315 | 7 | 134 | 0.0 | 0.0 | 0.00 | 0.00 | 0.00 | 66 | 1016.7 |
| 20260508075319 | 7 | 217 | 0.0 | 1.6 | 0.00 | 0.00 | 0.00 | 68 | 1016.7 |
| 20260508074251 | 7 | 162 | 0.0 | 0.0 | 0.00 | 0.00 | 0.00 | 67 | 1016.6 |
| 20260508073219 | 7 | 167 | 0.0 | 0.0 | 0.00 | 0.00 | 0.00 | 67 | 1016.7 |
| 20260508072204 | 8 | 169 | 0.0 | 0.0 | 0.00 | 0.00 | 0.00 | 66 | 1016.6 |
| 20260508070054 | 9 | 137 | 0.0 | 3.2 | 0.00 | 0.00 | 0.00 | 61 | 1016.7 |
| 20260508065022 | 10 | 207 | 0.0 | 8.0 | 0.00 | 0.00 | 0.00 | 58 | 1016.7 |
| 20260508063948 | 10 | 211 | 0.0 | 4.8 | 0.00 | 0.00 | 0.00 | 58 | 1016.7 |
| 20260508063012 | 10 | 177 | 1.6 | 6.4 | 0.00 | 0.00 | 0.00 | 56 | 1016.7 |
| 20260508061938 | 10 | 128 | 0.0 | 1.6 | 0.00 | 0.00 | 0.00 | 56 | 1016.7 |
| 20260508060943 | 11 | 131 | 0.0 | 6.4 | 0.00 | 0.00 | 0.00 | 56 | 1016.7 |
| 20260508055935 | 11 | 122 | 0.0 | 1.6 | 0.00 | 0.00 | 0.00 | 54 | 1016.8 |
| 20260508054938 | 11 | 115 | 0.0 | 6.4 | 0.00 | 0.00 | 0.00 | 53 | 1016.8 |
| 20260508053914 | 11 | 54 | 0.0 | 4.8 | 0.00 | 0.00 | 0.00 | 50 | 1016.8 |
| 20260508052934 | 12 | 236 | 0.0 | 3.2 | 0.00 | 0.00 | 0.00 | 50 | 1016.8 |
| 20260508051921 | 12 | 43 | 0.0 | 0.0 | 0.00 | 0.00 | 0.00 | 47 | 1016.8 |
| 20260508045754 | 13 | 236 | 0.0 | 4.8 | 0.00 | 0.00 | 0.00 | 43 | 1016.8 |
| 20260508044735 | 13 | 166 | 0.0 | 3.2 | 0.00 | 0.00 | 0.00 | 43 | 1016.8 |
| 20260508043741 | 13 | 61 | 0.0 | 1.6 | 0.00 | 0.00 | 0.00 | 41 | 1016.7 |
| 20260508042802 | 13 | 129 | 0.0 | 1.6 | 0.00 | 0.00 | 0.00 | 41 | 1016.6 |
| 20260508041744 | 15 | 205 | 0.0 | 0.0 | 0.00 | 0.00 | 0.00 | 38 | 1016.5 |
| 20260508040723 | 15 | 33 | 0.0 | 1.6 | 0.00 | 0.00 | 0.00 | 35 | 1016.5 |
| 20260508035744 | 15 | 72 | 0.0 | 0.0 | 0.00 | 0.00 | 0.00 | 34 | 1016.4 |
| 20260508034720 | 16 | 323 | 0.0 | 3.2 | 0.00 | 0.00 | 0.00 | 32 | 1016.2 |
| 20260508033718 | 16 | 314 | 0.0 | 1.6 | 0.00 | 0.00 | 0.00 | 32 | 1016.2 |
| 20260508032654 | 16 | 43 | 0.0 | 0.0 | 0.00 | 0.00 | 0.00 | 31 | 1016.0 |
| 20260508025442 | 17 | 22 | 0.0 | 9.7 | 0.00 | 0.00 | 0.00 | 35 | 1015.8 |
| 20260508023315 | 17 | 46 | 0.0 | 8.0 | 0.00 | 0.00 | 0.00 | 36 | 1015.7 |
| 20260508021242 | 18 | 76 | 0.0 | 6.4 | 0.00 | 0.00 | 0.00 | 34 | 1015.7 |
| 20260508020244 | 18 | 60 | 0.0 | 3.2 | 0.00 | 0.00 | 0.00 | 34 | 1015.7 |
| 20260508015215 | 19 | 27 | 1.6 | 12.9 | 0.00 | 0.00 | 0.00 | 34 | 1015.6 |
| 20260508013020 | 20 | 299 | 1.6 | 14.5 | 0.00 | 0.00 | 0.00 | 35 | 1015.6 |
| 20260508012018 | 21 | 12 | 0.0 | 14.5 | 0.00 | 0.00 | 0.00 | 32 | 1015.8 |
| 20260508011040 | 21 | 271 | 0.0 | 14.5 | 0.00 | 0.00 | 0.00 | 32 | 1015.8 |
| 20260508010019 | 21 | 12 | 1.6 | 17.7 | 0.00 | 0.00 | 0.00 | 32 | 1016.0 |
| 20260508004955 | 21 | 46 | 3.2 | 22.5 | 0.00 | 0.00 | 0.00 | 30 | 1015.8 |
| 20260508004006 | 21 | 23 | 3.2 | 22.5 | 0.00 | 0.00 | 0.00 | 30 | 1015.8 |
| 20260508002959 | 21 | 15 | 3.2 | 17.7 | 0.00 | 0.00 | 0.00 | 28 | 1015.8 |
| 20260508002014 | 22 | 225 | 1.6 | 12.9 | 0.00 | 0.00 | 0.00 | 30 | 1015.8 |
| 20260508001014 | 21 | 47 | 3.2 | 19.3 | 0.00 | 0.00 | 0.00 | 27 | 1015.8 |
| 20260507235944 | 21 | 322 | 4.8 | 22.5 | 0.00 | 0.00 | 0.00 | 30 | 1015.8 |
| 20260507235000 | 22 | 214 | 4.8 | 22.5 | 0.00 | 0.00 | 0.00 | 30 | 1015.7 |
| 20260507233950 | 22 | 46 | 3.2 | 12.9 | 0.00 | 0.00 | 0.00 | 26 | 1015.6 |
| 20260507231836 | 22 | 34 | 3.2 | 17.7 | 0.00 | 0.00 | 0.00 | 27 | 1015.7 |
| 20260507230816 | 22 | 79 | 1.6 | 17.7 | 0.00 | 0.00 | 0.00 | 27 | 1015.8 |
| 20260507225831 | 22 | 52 | 3.2 | 12.9 | 0.00 | 0.00 | 0.00 | 27 | 1015.8 |
| 20260507224804 | 22 | 44 | 1.6 | 16.1 | 0.00 | 0.00 | 0.00 | 27 | 1015.9 |
| 20260507223755 | 22 | 63 | 3.2 | 16.1 | 0.00 | 0.00 | 0.00 | 26 | 1016.0 |
| 20260507222812 | 22 | 162 | 1.6 | 11.3 | 0.00 | 0.00 | 0.00 | 29 | 1016.1 |
| 20260507221740 | 22 | 296 | 0.0 | 19.3 | 0.00 | 0.00 | 0.00 | 27 | 1016.2 |
| 20260507215643 | 22 | 19 | 3.2 | 14.5 | 0.00 | 0.00 | 0.00 | 30 | 1016.5 |
| 20260507214630 | 22 | 23 | 1.6 | 4.8 | 0.00 | 0.00 | 0.00 | 31 | 1016.6 |
| 20260507213651 | 22 | 25 | 3.2 | 12.9 | 0.00 | 0.00 | 0.00 | 29 | 1016.5 |
| 20260507212623 | 22 | 14 | 3.2 | 12.9 | 0.00 | 0.00 | 0.00 | 29 | 1016.6 |
| 20260507211551 | 22 | 16 | 3.2 | 12.9 | 0.00 | 0.00 | 0.00 | 32 | 1016.6 |
| 20260507205457 | 22 | 80 | 3.2 | 19.3 | 0.00 | 0.00 | 0.00 | 33 | 1016.7 |
| 20260507203333 | 21 | 311 | 3.2 | 22.5 | 0.00 | 0.00 | 0.00 | 35 | 1016.9 |
| 20260507201203 | 21 | 53 | 1.6 | 12.9 | 0.00 | 0.00 | 0.00 | 35 | 1017.1 |
| 20260507200206 | 21 | 335 | 1.6 | 12.9 | 0.00 | 0.00 | 0.00 | 34 | 1017.1 |
| 20260507195154 | 21 | 92 | 0.0 | 9.7 | 0.00 | 0.00 | 0.00 | 33 | 1017.3 |
| 20260507194120 | 21 | 35 | 1.6 | 9.7 | 0.00 | 0.00 | 0.00 | 34 | 1017.3 |
| 20260507193050 | 21 | 42 | 1.6 | 9.7 | 0.00 | 0.00 | 0.00 | 34 | 1017.4 |
| 20260507192037 | 21 | 81 | 0.0 | 6.4 | 0.00 | 0.00 | 0.00 | 36 | 1017.5 |
| 20260507191003 | 21 | 55 | 0.0 | 12.9 | 0.00 | 0.00 | 0.00 | 35 | 1017.6 |
| 20260507184821 | 20 | 19 | 0.0 | 19.3 | 0.00 | 0.00 | 0.00 | 35 | 1017.7 |
| 20260507183817 | 20 | 31 | 0.0 | 6.4 | 0.00 | 0.00 | 0.00 | 38 | 1017.9 |
| 20260507182817 | 19 | 30 | 0.0 | 16.1 | 0.00 | 0.00 | 0.00 | 38 | 1018.0 |
| 20260507181825 | 19 | 271 | 0.0 | 16.1 | 0.00 | 0.00 | 0.00 | 39 | 1018.0 |
| 20260507180825 | 18 | 343 | 0.0 | 11.3 | 0.00 | 0.00 | 0.00 | 42 | 1018.1 |
| 20260507175819 | 18 | 298 | 0.0 | 11.3 | 0.00 | 0.00 | 0.00 | 41 | 1018.2 |
| 20260507174839 | 18 | 71 | 1.6 | 6.4 | 0.00 | 0.00 | 0.00 | 41 | 1018.3 |
| 20260507173823 | 18 | 345 | 0.0 | 6.4 | 0.00 | 0.00 | 0.00 | 41 | 1018.4 |
| 20260507172828 | 17 | 287 | 0.0 | 6.4 | 0.00 | 0.00 | 0.00 | 44 | 1018.4 |
| 20260507171758 | 17 | 345 | 0.0 | 11.3 | 0.00 | 0.00 | 0.00 | 49 | 1018.4 |
| 20260507170746 | 16 | 40 | 1.6 | 11.3 | 0.00 | 0.00 | 0.00 | 51 | 1018.4 |
| 20260507164656 | 16 | 277 | 1.6 | 9.7 | 0.00 | 0.00 | 0.00 | 55 | 1018.3 |
| 20260507163634 | 15 | 53 | 1.6 | 9.7 | 0.00 | 0.00 | 0.00 | 57 | 1018.4 |
| 20260507162601 | 15 | 44 | 1.6 | 9.7 | 0.00 | 0.00 | 0.00 | 57 | 1018.4 |
| 20260507160422 | 14 | 305 | 0.0 | 8.0 | 0.00 | 0.00 | 0.00 | 61 | 1018.4 |
| 20260507155351 | 14 | 37 | 0.0 | 9.7 | 0.00 | 0.00 | 0.00 | 61 | 1018.5 |
| 20260507154409 | 14 | 322 | 0.0 | 9.7 | 0.00 | 0.00 | 0.00 | 62 | 1018.5 |
| 20260507153341 | 13 | 15 | 0.0 | 6.4 | 0.00 | 0.00 | 0.00 | 60 | 1018.6 |
| 20260507152354 | 13 | 335 | 0.0 | 6.4 | 0.00 | 0.00 | 0.00 | 62 | 1018.7 |
| 20260507151355 | 13 | 159 | 0.0 | 14.5 | 0.00 | 0.00 | 0.00 | 62 | 1018.7 |
| 20260507150320 | 13 | 311 | 0.0 | 14.5 | 0.00 | 0.00 | 0.00 | 64 | 1018.8 |
| 20260507144156 | 13 | 177 | 0.0 | 9.7 | 0.00 | 0.00 | 0.00 | 64 | 1018.8 |
| 20260507143216 | 12 | 201 | 0.0 | 9.7 | 0.00 | 0.00 | 0.00 | 66 | 1018.8 |
| 20260507142212 | 12 | 296 | 0.0 | 8.0 | 0.00 | 0.00 | 0.00 | 67 | 1018.7 |
| 20260507141159 | 12 | 67 | 0.0 | 4.8 | 0.00 | 0.00 | 0.00 | 72 | 1018.7 |